Location: Unspecified
(0.0000°N, 0.0000°E)
Time: 11:16:46
(UTC+00:00)

Hubble Space Telescope - Pass Details

Date: 15 March 2019
Orbit: 537 x 540 km, 28.5° (Epoch: 24 March)

Event Time Altitude Azimuth Distance (km) Brightness Sun altitude
Rises 20:02:37 0° 236° (SW) 2,679 5.2 -28.4°
Reaches altitude 10° 20:04:54 10° 233° (SW) 1,787 4.1 -29.0°
Enters shadow 20:06:41 24° 228° (SW) 1,123 2.8 -29.4°
